Grafton, WI (53024)

4:25 AM CDT on August 25, 2016 (GMT -0500)
Lions Den Gorge | | Change Station

Elev 709 ft 43.34 °N, 87.90 °W | Updated 3 seconds ago

Clear
Clear
71.7 °F
Feels Like 71.7 °F
N
0.0
Wind Variable Wind from North
Gusts 1.0 mph

Today
High -- | Low -- °F
--% Chance of Precip.
Yesterday
High -- | Low -- °F
Precip. -- in
Pressure 29.97 in
Visibility 10.0 miles
Clouds Clear
Dew Point 69 °F
Humidity 92%
Rainfall 0.00 in
Snow Depth Not available.
6:08 AM 7:37 PM
Waning Gibbous, 47% visible
METAR KETB 250850Z AUTO 00000KT 10SM CLR 20/19 A2997 RMK AO2
Pressure 29.97 in
Visibility 10.0 miles
Clouds Clear
Dew Point 69 °F
Humidity 92%
Rainfall 0.00 in
Snow Depth Not available.
6:08 AM 7:37 PM
Waning Gibbous, 47% visible
METAR KETB 250850Z AUTO 00000KT 10SM CLR 20/19 A2997 RMK AO2

10-Day Weather Forecast

Almanac

Astronomy

Aug. 25, 2016 Rise Set
Actual Time
Civil Twilight
Nautical Twilight
Astronomical Twilight
Moon
Length of Visible Light
Length of Day
Tomorrow will be .
, % of the Moon is Illuminated

Today's Extremes

State Highs State Lows

Community

WunderPhotos

Upload Photos

1,934,814 photos uploaded!

WunderBlog® & News

Nearby

Air Quality

  Air Quality AQ Index Pollutant
Not available.

Snow Depth

Station Depth Elevation

Earthquake Activity

City Distance Mag. Time & Date
Minimum magnitude displayed is 2.5.

Coastal Water Temperatures

Place Temperature

Stations

Nearby Weather Stations

Station Location Temp. Windchill Dew Point Humidity Wind Precip. Elev Updated Type
                   

Watches & Warnings

There are currently no watches in effect.